Showing default

OPS 9348 (IDSCS 26), 3291

Orbit data source: Space-Track

OPS 9348 (IDSCS 26), 3291 is a payload satellite owned by SAMSO (US) in GEO that was launched on Thu, 13 Jun 1968 UTC via a TITAN IIIC launch vehicle from the Air Force Eastern Test Range (AFETR). Payload-class satellites include a variety of spacecraft equipped with specific instruments for various scientific and technological missions. These include communications satellites like Starlink; space stations such as the ISS; scientific satellites like the Hubble; Earth observation satellites from companies like Planet Labs, Umbra, and HawkEye 360; GPS; miniature CubeSats for education and research; and military/defense satellites.

Not visible in the next 10 days
Identifier
3291, 1968-050H
Orbit
GEO
Country
Flag of USUS
Related business
Manufacturer
Philco-Ford
Mission
Non-operational spacecraft
Bus & Motor
IDCSP, Unknown motor
Mass
45 kg wet, 45 kg dry
Launch date (UTC)
1968-06-13 (57 years ago)
Launch vehicle
TITAN IIIC
Launch site
Air Force Eastern Test Range (AFETR)
Object type
Payload
Rocket body
Debris
Shape & HBR
Unknown
Radar Cross Section
Medium (>0.1 m² and <1 m²)

Expand to show TLE details & history
Last TLE update: 15 hours ago

TLE from 15 hours ago
0 OPS 9348 (IDSCS 26)
1 03291U 68050H   25292.67183615 -.00000072  00000-0  00000-0 0  9991
2 03291   6.4081  57.0524 0076239 128.3261 214.0698  1.06766862223457
Epoch: 2025-10-19T16:07Z
TLE epoch observation values (Epoch: 2025-10-19T16:07:26.643Z)
Latitude
-1.98349°
Longitude
128.79795°
Altitude
34,316.293 km
Speed
3.12 km/s
True Right ascension
02h 36m 10s
True Declination
-1° 58' 53"
Sunlit
Object was in daylight at epoch
Visualization orbit readout
Latitude
Unknown
Longitude
Unknown
Altitude
Unknown
Speed
Unknown
Apparent Right ascension
Unknown
Apparent Declination
Unknown
Sunlit
N/A
Visualization observer readout
Local Sidereal Time
02:24:02
Azimuth
Unknown
Elevation
Unknown
Doppler factor
Unknown
Orbital elements
Apogee altitude
34,368.121 km
Perigee altitude
33,751.531 km
Semi-major axis
40,437.963 km
Eccentricity
0.00762
Inclination
6.4081°
RAAN
57.0524°
Arg. of periapsis
128.3261°
True anomaly
213.58423°
Mean anomaly
214.0698°
Eccentric anomaly
213.82663°
Mean motion
0.26691 °/min
Orbital period
1,348.79 mins
BSTAR
0
Loading maneuver chart data...
Computing Atmospheric mass density...
Loading historical data...
Loading historical data...
Loading historical data...
Loading historical data...
Loading historical data...
Loading historical data...
Loading historical data...

Documentation

Showing up to 5 results
|